Location: Alexandria
(38.8050°N, 77.0470°W)
Time: 12:57:42
(UTC-05:00)

Vanguard 1 Rocket - Visible Passes

Search period start: 25 February 2018 00:00
Search period end: 07 March 2018 00:00
Orbit: 655 x 4222 km, 34.3° (Epoch: 24 February)

Date Brightness Start Highest point End Pass type
(mag) Time Alt. Az. Time Alt. Az. Time Alt. Az.
25 Feb 10.4 02:25:35 68° SSE 02:25:35 68° SSE 02:45:03 10° ESE visible
25 Feb 10.6 04:42:53 31° W 04:53:13 41° SW 05:09:45 10° SSE visible
25 Feb 10.2 19:52:34 10° SSW 20:05:08 41° SE 20:11:04 35° ESE visible
25 Feb 10.2 22:16:20 10° WSW 23:01:19 - E 22:28:25 58° SW visible
26 Feb 10.8 00:44:06 10° W 01:18:37 47° ESE 01:32:07 10° ESE visible
26 Feb 10.4 03:35:56 52° SW 03:39:42 55° SSW 03:59:20 10° SE visible
26 Feb 11.0 05:53:15 12° W 06:07:23 22° SW 06:19:35 10° SSW visible
26 Feb 10.4 18:43:57 10° S 18:53:38 26° SE 19:04:23 16° E visible
26 Feb 10.0 21:05:14 10° SW 21:20:09 62° SSE 21:21:43 61° SE visible
26 Feb 10.8 23:31:20 10° W 00:11:45 24° E 00:18:08 10° E visible
27 Feb 10.4 02:29:04 62° S 02:29:04 62° S 02:47:41 10° SE visible
27 Feb 10.7 04:46:23 29° WSW 04:55:06 35° SW 05:11:31 10° SSE visible
27 Feb 10.0 19:55:01 10° SSW 20:07:21 47° SE 20:14:57 36° E visible
27 Feb 10.1 22:19:21 10° WSW 23:04:57 - E 22:32:17 64° SW visible
28 Feb 10.9 00:47:09 10° W 01:22:16 43° ESE 01:34:52 10° ESE visible
28 Feb 10.5 03:39:36 48° SW 03:41:48 48° SW 04:01:30 10° SSE visible
28 Feb 11.2 05:56:57 10° W 06:09:08 16° WSW 06:19:22 10° SSW visible
28 Feb 10.1 18:45:52 10° S 18:55:43 32° SE 19:08:07 16° E visible
28 Feb 9.9 21:08:08 10° WSW 21:22:42 67° SSE 21:25:27 63° SE visible
28 Feb 10.7 23:34:26 10° W 00:15:33 22° ESE 00:20:56 10° ESE visible
01 Mar 10.5 02:32:54 54° S 02:32:54 54° S 02:50:07 10° SE visible
01 Mar 10.9 04:50:13 26° WSW 04:56:55 29° SW 05:12:48 10° S visible
01 Mar 9.8 19:57:42 10° SW 20:09:45 54° SSE 20:18:33 36° E visible
01 Mar 10.1 22:22:28 10° WSW 23:08:54 - E 22:35:52 68° SW visible
02 Mar 11.0 00:50:12 10° W 01:26:15 38° SE 01:37:29 10° ESE visible
02 Mar 10.6 03:43:35 42° SW 03:43:47 42° SW 04:03:22 10° SSE visible
02 Mar 11.3 06:05:16 10° WSW 06:10:53 11° WSW 06:16:07 10° SW visible
02 Mar 9.9 18:48:09 10° SSW 18:57:56 38° SE 19:11:35 16° E visible
02 Mar 9.8 21:11:10 10° WSW 21:25:24 72° SSE 21:28:53 64° ESE visible
02 Mar 10.6 23:37:35 10° W 00:19:39 18° ESE 00:23:39 10° ESE visible
03 Mar 10.7 02:37:00 46° S 02:37:00 46° S 02:52:19 10° SE visible
03 Mar 11.0 04:54:21 22° WSW 04:58:42 23° SW 05:13:24 10° S visible
03 Mar 9.7 20:00:35 10° SW 20:12:18 60° SSE 20:21:50 36° E visible
03 Mar 10.0 22:25:37 10° W 23:13:05 - E 22:39:08 69° SW visible
04 Mar 11.1 00:53:17 10° W 01:30:26 32° SE 01:39:55 10° SE visible
04 Mar 10.8 03:47:47 35° SW 03:47:47 35° SW 04:04:50 10° SSE visible
04 Mar 9.7 18:50:44 10° SSW 19:00:19 44° SE 19:14:44 16° E visible
04 Mar 9.8 21:14:18 10° WSW 21:28:13 75° S 21:32:01 65° ESE visible
04 Mar 10.6 23:40:43 10° W 00:23:54 15° ESE 00:26:14 10° ESE visible
05 Mar 10.9 02:41:15 37° S 02:41:15 37° S 02:54:13 10° SSE visible
05 Mar 11.2 04:58:36 17° WSW 05:00:31 17° SW 05:12:52 10° SSW visible
05 Mar 9.6 20:03:35 10° WSW 20:15:02 66° SSE 20:24:51 36° E visible
05 Mar 10.0 22:28:49 10° W 22:42:08 69° SW 22:42:08 69° SW visible
06 Mar 11.2 00:56:25 10° W 01:34:43 26° SE 01:42:07 10° SE visible
06 Mar 11.0 03:52:04 28° SSW 03:52:04 28° SSW 04:05:46 10° S visible
06 Mar 9.5 18:53:31 10° SW 19:02:53 51° SSE 19:17:39 16° E visible
06 Mar 9.7 21:17:30 10° WSW 21:31:05 76° S 21:34:55 65° ESE visible
